Hourly Data Report for September 28, 2017

All times are specified in Local Standard Time (LST). Add 1 hour to adjust for Daylight Saving Time where and when it is observed.

MISCOU ISLAND (AUT)
NEW BRUNSWICK

48°00'32.002" N
64°29'39.008" W
4.00 m
8103050
71719
WMI

Download Data

Hourly Data (September 2017)
Hourly Data Report for September 28, 2017
Temp Definition
°C
Dew Point Temp Definition
°C
Rel Hum Definition
%
Wind Dir Definition
10's deg

Wind Spd Definition
km/h
Visibility Definition
km
Stn Press Definition
kPa
Hmdx Definition


Wind Chill Definition


Weather Definition


TIME
00:00 14.3 13.7 96 22 18   100.16     LegendNANA
01:00 14.5 13.9 96 19 19   99.93     LegendNANA
02:00 14.5 13.9 96 25 18   100.05     LegendNANA
03:00 15.2 14.5 96 21 14   99.99     LegendNANA
04:00 15.2 14.5 96 24 15   99.93     LegendNANA
05:00 15.6 14.8 95 23 20   99.88     LegendNANA
06:00 15.5 14.6 94 24 23   99.85     LegendNANA
07:00 14.8 13.9 94 26 29   99.82     LegendNANA
08:00 14.6 13.1 90 26 22   99.87     LegendNANA
09:00 13.9 10.6 81 28 27   99.89     LegendNANA
10:00 14.5 10.6 78 28 20   99.90     LegendNANA
11:00 14.9 10.7 76 26 14   99.97     LegendNANA
12:00 16.7 11.0 69 24 20   100.03     LegendNANA
13:00 16.0 10.3 69 26 17   100.03     LegendNANA
14:00 15.6 10.0 70 27 23   100.06     LegendNANA
15:00 15.1 8.7 65 27 19   100.08     LegendNANA
16:00 14.5 8.2 66 27 22   100.12     LegendNANA
17:00 13.7 7.5 66 28 25   100.16     LegendNANA
18:00 12.4 6.9 69 28 26   100.18     LegendNANA
19:00 12.1 5.5 64 28 25   100.22     LegendNANA
20:00 11.6 5.7 67 28 25   100.24     LegendNANA
21:00 11.0 6.0 71 27 24   100.23     LegendNANA
22:00 10.5 6.0 74 27 23   100.24     LegendNANA
23:00 10.1 5.1 71 28 22   100.27     LegendNANA

Notes on Data Quality.

Legend

  • E = Estimated
  • M = Missing
  • NA = Not Available
  • ‡ = Partner data that is not subject to review by the National Climate Archives
Date modified: